Location: ?????????
(54.7630°N, 39.4991°E)
Time: 21:32:17
(UTC+00:00)

SL-16 R/B - Pass Details

Date: 14 April 2026
Orbit: 839 x 849 km, 71.0° (Epoch: 11 May)

Event Time Altitude Azimuth Distance (km) Brightness Sun altitude
Exits shadow 21:13:18 20° 255° (WSW) 1,866 3.8 -25.6°
Maximum altitude 21:16:51 42° 316° (NW) 1,196 3.2 -25.6°
Drops below altitude 10° 21:22:14 10° 27° (NNE) 2,481 5.4 -25.6°
Sets 21:24:51 0° 35° (NE) 3,420 6.2 -25.6°
